Location: Bismarck
(46.7731°N, 100.8200°W)
Time: 12:01:02
(UTC-05:00)

Amateur Radio Satellites - All Passes

Search period start: 01 July 2016 11:31
Search period end: 02 July 2016 11:31
Location: Bismarck, 46.7731°N, 100.8200°W

Satellite Date Start Highest point End Downlink Frequencies (MHz)
Time Altitude Azimuth
PCSat 01 Jul 11:37:20 11:42:48 84° 238° (WSW) 11:48:13 145.827
ZACube-1 01 Jul 11:43:14 11:47:38 48° 289° (WNW) 11:52:02 437.345
YUBILEINY 01 Jul 11:45:37 11:50:18 16° 72° (ENE) 11:54:59 435.215
BUGSAT 1 01 Jul 11:46:03 11:48:39 17° 62° (ENE) 11:51:16 437.445
COMPASS 1 01 Jul 11:46:33 11:49:03 16° 299° (WNW) 11:51:33 437.405
Oscar 11 01 Jul 11:47:16 11:51:22 40° 290° (WNW) 11:55:26 145.826/435.025
ANTELSAT 01 Jul 11:49:36 11:53:38 37° 263° (W) 11:57:46 437.575/2403.000
Cosmos 2491 01 Jul 11:53:25 12:01:51 50° 72° (ENE) 12:10:14 435.465 / 435.565
DANDE 01 Jul 11:53:26 11:54:48 10° 309° (NW) 11:56:09 436.750
FUNcube-1 01 Jul 11:59:13 12:03:24 36° 291° (WNW) 12:07:35 145.935
AUBIESAT-1 01 Jul 12:02:30 12:06:08 36° 296° (WNW) 12:10:00 437.475
BEESAT 3 01 Jul 12:10:27 12:14:00 32° 243° (WSW) 12:17:32 437.485
UWE-3 01 Jul 12:12:12 12:15:33 20° 297° (WNW) 12:18:55 435.000/436.395/437.385
O/OREOS (USA 219) 01 Jul 12:17:19 12:21:36 42° 59° (ENE) 12:25:52 437.305
NANOSAT C BR1 01 Jul 12:17:49 12:21:59 80° 73° (ENE) 12:26:12 145.865
50 SAT 01 Jul 12:20:40 12:22:05 12° 90° (E) 12:23:30 437.505
VELOX 1 01 Jul 12:21:47 12:23:59 13° 89° (E) 12:26:10 145.980
QB50P1 01 Jul 12:22:40 12:26:51 87° 256° (WSW) 12:31:05 145.935-145.965
AIST 2 01 Jul 12:25:08 12:28:19 20° 37° (NE) 12:31:28 435.215
POPSAT HIP 1 01 Jul 12:26:12 12:30:23 82° 257° (WSW) 12:34:37 437.405
HUMSAT D 01 Jul 12:28:54 12:33:11 61° 287° (WNW) 12:37:26 437.325/437.525
DELFI C3 01 Jul 12:29:07 12:32:34 28° 292° (WNW) 12:35:58 145.870
DUCHIFAT 1 01 Jul 12:36:52 12:41:02 69° 259° (W) 12:45:13 145.980
QB50P2 01 Jul 12:39:29 12:43:36 55° 260° (W) 12:47:46 145.880/145.840
POLYITAN 1 01 Jul 12:42:08 12:46:14 53° 260° (W) 12:50:23 437.675
TIGRISAT 01 Jul 12:42:56 12:44:49 13° 272° (W) 12:46:44 435.000
Oscar 19 01 Jul 12:43:35 12:46:43 17° 57° (ENE) 12:49:52 437.125/150
UKube-1 01 Jul 12:45:34 12:47:59 15° 90° (E) 12:50:22 .
M-CUBED/EXP-1 PRIME 01 Jul 12:46:07 12:47:56 13° 304° (NW) 12:49:50 437.505
UNISAT 6 01 Jul 12:50:47 12:51:11 10° 274° (W) 12:51:35 437.425
JAS-2 01 Jul 12:51:07 12:58:20 56° 69° (ENE) 13:04:50 435.910
Cosmos 2504 01 Jul 12:51:20 12:54:17 12° 69° (ENE) 12:57:16 435.465 / 435.565
BEESAT 2 01 Jul 12:55:02 12:58:06 21° 246° (WSW) 13:01:08 435.950
ISS 01 Jul 12:56:00 12:59:07 39° 11° (NNE) 13:02:13 145.825
HO-68 01 Jul 13:01:19 13:03:04 11° 320° (NW) 13:04:50 435.675
AISAT 01 Jul 13:01:37 13:05:40 35° 97° (E) 13:09:42 437.250
DX 1 01 Jul 13:10:23 13:14:18 32° 97° (E) 13:18:10 434.975-435.025
ESTCUBE 1 01 Jul 13:10:26 13:14:56 67° 102° (ESE) 13:19:23 437.505/2401.250
RS-15 01 Jul 13:17:33 13:29:05 88° 304° (NW) 13:41:20 29.354- 29.394
BUGSAT 1 01 Jul 13:19:48 13:23:41 49° 260° (W) 13:27:36 437.445
PCSat 01 Jul 13:22:49 13:25:20 13° 257° (WSW) 13:27:52 145.827
Gurwin Techsat 1B 01 Jul 13:25:40 13:29:13 19° 58° (ENE) 13:32:47 435.225
YUBILEINY 01 Jul 13:36:47 13:45:27 73° 94° (E) 13:54:12 435.215
CUBEBUG 1 01 Jul 13:39:54 13:44:14 89° 284° (WNW) 13:48:34 437.445
TISAT 1 01 Jul 13:49:38 13:51:41 13° 89° (E) 13:53:45 437.305
Cosmos 2491 01 Jul 13:50:36 13:58:33 42° 274° (W) 14:06:30 435.465 / 435.565
50 SAT 01 Jul 13:52:30 13:56:08 55° 287° (WNW) 13:59:43 437.505
VELOX 1 01 Jul 13:56:32 14:00:55 68° 287° (WNW) 14:05:17 145.980
O/OREOS (USA 219) 01 Jul 13:57:13 14:00:45 23° 257° (WSW) 14:04:17 437.305
NANOSAT C BR1 01 Jul 13:57:27 13:58:17 10° 273° (W) 13:59:08 145.865
AIST 2 01 Jul 14:03:04 14:07:12 68° 237° (WSW) 14:11:20 435.215
SPROUT 01 Jul 14:15:18 14:19:37 89° 272° (W) 14:23:54 437.525
UKube-1 01 Jul 14:20:09 14:24:26 61° 287° (WNW) 14:28:40 .
Oscar 19 01 Jul 14:20:16 14:25:25 81° 256° (WSW) 14:30:35 437.125/150
ISS 01 Jul 14:32:27 14:35:42 65° 210° (SSW) 14:38:56 145.825
AO-7 01 Jul 14:35:41 14:42:21 28° 50° (NE) 14:49:02 29.400- 29.500
JAS-2 01 Jul 14:36:58 14:43:34 33° 265° (W) 14:49:38 435.910
Cosmos 2504 01 Jul 14:37:33 14:45:36 59° 91° (E) 14:54:11 435.465 / 435.565
AISAT 01 Jul 14:38:21 14:42:01 26° 295° (WNW) 14:45:41 437.250
DX 1 01 Jul 14:46:42 14:50:25 28° 294° (WNW) 14:54:07 434.975-435.025
ESTCUBE 1 01 Jul 14:48:29 14:51:14 16° 300° (WNW) 14:53:58 437.505/2401.250
ITAMSAT 1 01 Jul 14:50:25 14:55:07 35° 65° (ENE) 14:59:51 435.822/435.867
Gurwin Techsat 1B 01 Jul 15:03:16 15:08:34 76° 257° (WSW) 15:13:56 435.225
CUBEBUG 1 01 Jul 15:18:26 15:19:51 11° 303° (WNW) 15:21:15 437.445
TISAT 1 01 Jul 15:23:35 15:27:46 65° 287° (WNW) 15:31:57 437.305
RS-15 01 Jul 15:32:26 15:43:21 41° 335° (NNW) 15:54:45 29.354- 29.394
YUBILEINY 01 Jul 15:35:48 15:43:07 29° 297° (WNW) 15:50:33 435.215
SWISSCUBE 01 Jul 15:48:17 15:52:57 48° 99° (E) 15:57:33 437.505
SPROUT 01 Jul 15:53:30 15:54:53 11° 302° (WNW) 15:56:16 437.525
Oscar 19 01 Jul 16:04:07 16:05:33 11° 274° (W) 16:06:58 437.125/150
ISS 01 Jul 16:10:43 16:11:35 11° 228° (SW) 16:12:28 145.825
SO-50 01 Jul 16:10:46 16:15:30 52° 121° (ESE) 16:20:15 436.795
BEESAT 01 Jul 16:13:05 16:17:55 75° 103° (ESE) 16:22:42 436.000
ITUPSAT 1 01 Jul 16:16:23 16:21:14 79° 105° (ESE) 16:26:02 437.325
MOZHAYETS 4 01 Jul 16:24:12 16:26:25 13° 88° (E) 16:28:39
AO-7 01 Jul 16:25:53 16:34:15 85° 252° (WSW) 16:42:41 29.400- 29.500
ITAMSAT 1 01 Jul 16:29:49 16:34:34 35° 263° (W) 16:39:22 435.822/435.867
Cosmos 2504 01 Jul 16:31:57 16:39:29 36° 294° (WNW) 16:47:28 435.465 / 435.565
HORYU 2 01 Jul 16:35:19 16:38:41 22° 63° (ENE) 16:42:04 437.375
Gurwin Techsat 1B 01 Jul 16:48:19 16:49:25 11° 275° (W) 16:50:32 435.225
AIST 1 01 Jul 17:17:16 17:21:08 33° 91° (E) 17:24:59
Cubesat XI-IV 01 Jul 17:24:20 17:27:06 14° 54° (NE) 17:29:53 437.490
SWISSCUBE 01 Jul 17:26:41 17:30:27 23° 298° (WNW) 17:34:12 437.505
GONETS M04 01 Jul 17:42:17 17:48:14 21° 76° (ENE) 17:54:11
KKS-1 01 Jul 17:44:28 17:48:57 83° 104° (ESE) 17:53:25 437.445
NOAA 18 01 Jul 17:44:38 17:48:53 24° 59° (ENE) 17:53:09 137.9125
RS-15 01 Jul 17:49:21 18:00:03 34° 10° (N) 18:10:58 29.354- 29.394
SO-50 01 Jul 17:51:55 17:56:14 30° 320° (NW) 18:00:33 436.795
BEESAT 01 Jul 17:52:13 17:55:08 16° 302° (WNW) 17:58:02 436.000
ITUPSAT 1 01 Jul 17:55:38 17:58:27 16° 302° (WNW) 18:01:16 437.325
CUTE-I 01 Jul 17:55:41 17:59:57 25° 61° (ENE) 18:04:16 437.470
MOZHAYETS 4 01 Jul 17:59:29 18:04:09 75° 286° (WNW) 18:08:45
CUBESAT XI-V 01 Jul 18:00:28 18:03:19 16° 89° (E) 18:06:08 437.345
CUSAT 1 01 Jul 18:05:12 18:07:11 14° 61° (ENE) 18:08:58 437.405
STARS 01 Jul 18:07:16 18:11:42 74° 104° (ESE) 18:16:06 437.465
HORYU 2 01 Jul 18:10:41 18:14:57 46° 260° (W) 18:19:16 437.375
NOAA 15 01 Jul 18:11:46 18:16:44 43° 67° (ENE) 18:21:43 137.62
HO-68 01 Jul 18:13:04 18:14:54 11° 40° (NE) 18:16:44 435.675
BRITE-PL 01 Jul 18:16:02 18:20:33 40° 70° (ENE) 18:24:46 437.365/2234.400
AO-7 01 Jul 18:22:30 18:28:12 20° 271° (W) 18:33:57 29.400- 29.500
GOMX 1 01 Jul 18:32:50 18:36:31 26° 67° (ENE) 18:40:04 467.674
AIST 1 01 Jul 18:55:15 18:58:47 24° 289° (WNW) 19:02:19
DANDE 01 Jul 18:58:41 19:02:52 27° 64° (ENE) 19:06:08 436.750
Cubesat XI-IV 01 Jul 19:00:59 19:06:20 81° 73° (ENE) 19:11:45 437.490
Cosmos 2499 01 Jul 19:03:51 19:11:45 46° 87° (E) 19:20:01 435.465 / 435.565
LilacSat-2 01 Jul 19:09:42 19:13:29 87° 259° (WSW) 19:17:21 437.200
DOVE 4 01 Jul 19:15:25 19:19:10 31° 68° (ENE) 19:22:50 437.250
KKS-1 01 Jul 19:22:47 19:24:54 13° 302° (WNW) 19:27:01 437.445
NOAA 18 01 Jul 19:23:43 19:29:08 61° 258° (WSW) 19:34:36 137.9125
CUTE-I 01 Jul 19:34:26 19:39:40 54° 260° (W) 19:44:57 437.470
GONETS M04 01 Jul 19:35:07 19:43:50 90° 283° (WNW) 19:52:35
CUBESAT XI-V 01 Jul 19:36:33 19:41:08 62° 287° (WNW) 19:45:40 437.345
SO-50 01 Jul 19:36:43 19:38:16 11° 343° (NNW) 19:39:48 436.795
MOZHAYETS 4 01 Jul 19:39:18 19:40:29 11° 304° (NW) 19:41:41
CANX-2 01 Jul 19:40:48 19:43:51 19° 63° (ENE) 19:46:55 2200.000
STARS 01 Jul 19:45:08 19:47:30 14° 301° (WNW) 19:49:52 437.465
CINEMA 3 01 Jul 19:46:10 19:49:15 21° 64° (ENE) 19:52:24 145.822/145.860
CUSAT 1 01 Jul 19:46:31 19:49:32 27° 269° (W) 19:52:03 437.405
NOAA 15 01 Jul 19:52:07 19:56:39 29° 265° (W) 20:01:13 137.62
HO-68 01 Jul 19:54:09 20:00:49 44° 62° (ENE) 20:07:33 435.675
BRITE-PL 01 Jul 19:55:09 19:59:08 25° 265° (W) 20:02:55 437.365/2234.400
SEEDS 01 Jul 19:57:43 20:00:40 18° 63° (ENE) 20:03:37 437.485
CUTE 1.7 + AOD 2 01 Jul 19:59:32 20:03:03 25° 66° (ENE) 20:06:35 437.475
RS-15 01 Jul 20:03:38 20:15:47 59° 41° (NE) 20:27:56 29.354- 29.394
GOMX 1 01 Jul 20:10:29 20:14:32 33° 263° (W) 20:18:26 467.674
AAUSAT CUBESAT 2 01 Jul 20:26:27 20:29:34 21° 64° (ENE) 20:32:42 437.432
M-CUBED/EXP-1 PRIME 01 Jul 20:27:15 20:29:01 14° 56° (ENE) 20:30:48 437.505
DANDE 01 Jul 20:41:44 20:45:35 25° 274° (W) 20:48:39 436.750
Cubesat XI-IV 01 Jul 20:43:59 20:47:04 15° 272° (W) 20:50:10 437.490
STRAND 1 01 Jul 20:44:21 20:49:20 47° 99° (E) 20:54:16 437.568
DOVE 4 01 Jul 20:53:23 20:56:55 25° 265° (W) 21:00:25 437.250
CUBEBUG 2 01 Jul 20:55:17 20:59:04 33° 68° (ENE) 21:02:58 437.445
Cosmos 2499 01 Jul 20:56:44 21:04:52 47° 289° (WNW) 21:13:24 435.465 / 435.565
COMPASS 1 01 Jul 21:02:54 21:07:02 58° 73° (ENE) 21:11:12 437.405
ZACube-1 01 Jul 21:06:30 21:09:46 22° 64° (ENE) 21:13:08 437.345
PRISM 01 Jul 21:06:35 21:07:33 11° 88° (E) 21:08:30 437.425
Oscar 11 01 Jul 21:09:07 21:12:40 25° 65° (ENE) 21:16:13 145.826/435.025
CANX-2 01 Jul 21:15:13 21:19:22 49° 261° (W) 21:23:35 2200.000
AUBIESAT-1 01 Jul 21:17:32 21:20:39 40° 65° (ENE) 21:23:52 437.475
FUNcube-1 01 Jul 21:21:35 21:25:15 28° 66° (ENE) 21:28:59 145.935
CINEMA 3 01 Jul 21:22:15 21:26:09 41° 262° (W) 21:30:10 145.822/145.860
SEEDS 01 Jul 21:31:52 21:36:00 50° 260° (W) 21:40:11 437.485
UWE-3 01 Jul 21:34:37 21:38:46 59° 73° (ENE) 21:43:04 435.000/436.395/437.385
CUTE 1.7 + AOD 2 01 Jul 21:34:49 21:38:45 35° 264° (W) 21:42:44 437.475
GONETS M04 01 Jul 21:35:28 21:41:59 23° 301° (WNW) 21:48:33
AO-85 01 Jul 21:41:42 21:46:56 50° 120° (ESE) 21:51:57 145.980
HO-68 01 Jul 21:41:50 21:48:34 43° 262° (W) 21:55:21 435.675
DELFI C3 01 Jul 21:43:02 21:46:18 24° 66° (ENE) 21:49:36 145.870
HUMSAT D 01 Jul 21:49:03 21:51:34 16° 61° (ENE) 21:54:06 437.325/437.525
M-CUBED/EXP-1 PRIME 01 Jul 22:00:09 22:03:16 42° 255° (WSW) 22:06:28 437.505
AAUSAT CUBESAT 2 01 Jul 22:00:48 22:04:48 43° 262° (W) 22:08:49 437.432
RS-15 01 Jul 22:16:35 22:28:23 55° 247° (WSW) 22:40:05 29.354- 29.394
STRAND 1 01 Jul 22:24:00 22:28:16 27° 298° (WNW) 22:32:30 437.568
CUBEBUG 2 01 Jul 22:32:16 22:35:46 25° 267° (W) 22:39:22 437.445
ESTCUBE 1 01 Jul 22:39:11 22:40:51 12° 57° (ENE) 22:42:31 437.505/2401.250
PRISM 01 Jul 22:39:17 22:43:22 75° 287° (WNW) 22:47:26 437.425
COMPASS 1 01 Jul 22:40:33 22:42:58 15° 270° (W) 22:45:24 437.405
ZACube-1 01 Jul 22:41:48 22:45:49 41° 262° (W) 22:49:58 437.345
Oscar 11 01 Jul 22:44:36 22:48:38 37° 263° (W) 22:52:42 145.826/435.025
TIGRISAT 01 Jul 22:53:17 22:55:34 13° 88° (E) 22:57:51 435.000
AUBIESAT-1 01 Jul 22:53:47 22:55:26 13° 263° (W) 22:57:06 437.475
FUNcube-1 01 Jul 22:57:39 23:01:25 31° 265° (W) 23:05:18 145.935
Cosmos 2499 01 Jul 22:57:49 23:00:46 12° 315° (NW) 23:03:45 435.465 / 435.565
UNISAT 6 01 Jul 22:59:09 23:02:05 16° 90° (E) 23:05:02 437.425
SO-50 01 Jul 22:59:41 23:03:21 21° 33° (NNE) 23:06:55 436.795
CUBEBUG 1 01 Jul 23:04:48 23:06:58 14° 59° (ENE) 23:09:07 437.445
UWE-3 01 Jul 23:13:16 23:15:41 15° 271° (W) 23:18:08 435.000/436.395/437.385
DELFI C3 01 Jul 23:17:24 23:21:02 32° 264° (W) 23:24:42 145.870
VELOX 1 01 Jul 23:21:37 23:24:40 19° 62° (ENE) 23:27:42 145.980
HUMSAT D 01 Jul 23:22:33 23:26:42 62° 259° (W) 23:30:57 437.325/437.525
AO-85 01 Jul 23:22:43 23:27:37 35° 318° (NW) 23:32:18 145.980
ANTELSAT 01 Jul 23:37:47 23:42:08 37° 97° (E) 23:46:30 437.575/2403.000
SPROUT 01 Jul 23:38:33 23:40:16 12° 58° (ENE) 23:41:57 437.525
UKube-1 01 Jul 23:42:41 23:45:45 19° 62° (ENE) 23:48:48 .
YUBILEINY 01 Jul 23:43:24 23:51:44 43° 70° (ENE) 00:00:01 435.215
AISAT 02 Jul 00:01:32 00:05:43 45° 70° (ENE) 00:09:54 437.250
NANOSAT C BR1 02 Jul 00:02:00 00:02:49 10° 87° (E) 00:03:37 145.865
QB50P1 02 Jul 00:06:13 00:08:06 13° 89° (E) 00:09:59 145.935-145.965
DX 1 02 Jul 00:08:26 00:12:29 40° 69° (ENE) 00:16:33 434.975-435.025
POPSAT HIP 1 02 Jul 00:09:35 00:11:43 14° 89° (E) 00:13:53 437.405
ESTCUBE 1 02 Jul 00:12:23 00:16:56 85° 74° (ENE) 00:21:29 437.505/2401.250
DUCHIFAT 1 02 Jul 00:19:12 00:21:45 15° 90° (E) 00:24:19 145.980
QB50P2 02 Jul 00:22:06 00:25:14 20° 92° (E) 00:28:22 145.880/145.840
POLYITAN 1 02 Jul 00:24:41 00:27:53 20° 92° (E) 00:31:04 437.675
Cosmos 2504 02 Jul 00:26:54 00:34:21 29° 62° (ENE) 00:41:32 435.465 / 435.565
TIGRISAT 02 Jul 00:28:06 00:32:47 77° 286° (WNW) 00:37:29 435.000
50 SAT 02 Jul 00:32:34 00:36:17 83° 257° (WSW) 00:40:03 437.505
RS-15 02 Jul 00:33:45 00:37:48 12° 270° (W) 00:41:53 29.354- 29.394
UNISAT 6 02 Jul 00:34:35 00:39:12 63° 287° (WNW) 00:43:51 437.425
CUBEBUG 1 02 Jul 00:38:19 00:42:40 76° 256° (WSW) 00:47:02 437.445
SO-50 02 Jul 00:39:43 00:44:26 82° 232° (SW) 00:48:58 436.795
TISAT 1 02 Jul 00:44:10 00:46:38 16° 61° (ENE) 00:49:08 437.305
VELOX 1 02 Jul 00:56:27 01:00:45 54° 259° (W) 01:05:06 145.980
Cosmos 2491 02 Jul 00:58:05 01:06:25 51° 89° (E) 01:14:44 435.465 / 435.565
BUGSAT 1 02 Jul 00:59:10 01:02:06 18° 93° (E) 01:05:01 437.445
AO-85 02 Jul 01:07:22 01:09:34 13° 340° (NNW) 01:11:43 145.980
SPROUT 02 Jul 01:11:20 01:15:34 83° 257° (WSW) 01:19:52 437.525
ANTELSAT 02 Jul 01:14:45 01:18:43 28° 294° (WNW) 01:22:42 437.575/2403.000
UKube-1 02 Jul 01:17:16 01:21:27 50° 260° (W) 01:25:40 .
SWISSCUBE 02 Jul 01:23:24 01:25:05 12° 55° (NE) 01:26:48 437.505
NANOSAT C BR1 02 Jul 01:34:51 01:39:07 82° 287° (WNW) 01:43:23 145.865
AISAT 02 Jul 01:39:09 01:42:25 20° 267° (W) 01:45:41 437.250
QB50P1 02 Jul 01:40:06 01:44:21 69° 287° (WNW) 01:48:36 145.935-145.965
YUBILEINY 02 Jul 01:40:18 01:48:42 50° 272° (W) 01:57:03 435.215
JAS-2 02 Jul 01:43:28 01:48:19 30° 93° (E) 01:52:53 435.910
POPSAT HIP 1 02 Jul 01:43:42 01:47:57 65° 287° (WNW) 01:52:11 437.405
DX 1 02 Jul 01:45:26 01:48:50 22° 266° (W) 01:52:15 434.975-435.025
BEESAT 02 Jul 01:46:37 01:49:41 17° 59° (ENE) 01:52:45 436.000
ITUPSAT 1 02 Jul 01:50:02 01:53:15 18° 60° (ENE) 01:56:29 437.325
ESTCUBE 1 02 Jul 01:52:58 01:54:21 11° 273° (W) 01:55:45 437.505/2401.250
DUCHIFAT 1 02 Jul 01:53:38 01:57:48 56° 288° (WNW) 02:01:58 145.980
QB50P2 02 Jul 01:57:11 02:01:15 44° 290° (WNW) 02:05:19 145.880/145.840
POLYITAN 1 02 Jul 01:59:49 02:03:53 43° 290° (WNW) 02:07:57 437.675
BEESAT 3 02 Jul 02:04:08 02:06:57 19° 113° (ESE) 02:09:47 437.485
TIGRISAT 02 Jul 02:07:14 02:08:41 11° 304° (WNW) 02:10:07 435.000
TISAT 1 02 Jul 02:17:45 02:21:51 60° 258° (WSW) 02:25:59 437.305
Cosmos 2504 02 Jul 02:19:50 02:28:43 77° 265° (W) 02:37:11 435.465 / 435.565
PCSat 02 Jul 02:21:38 02:26:51 50° 116° (ESE) 02:32:06 145.827
SO-50 02 Jul 02:22:45 02:24:04 11° 253° (WSW) 02:25:22 436.795
Oscar 19 02 Jul 02:29:14 02:33:38 28° 94° (E) 02:38:01 437.125/150
O/OREOS (USA 219) 02 Jul 02:32:58 02:36:44 27° 104° (ESE) 02:40:32 437.305
BUGSAT 1 02 Jul 02:33:46 02:37:41 44° 289° (WNW) 02:41:37 437.445
BEESAT 2 02 Jul 02:48:52 02:52:21 30° 117° (ESE) 02:55:52 435.950
Cosmos 2491 02 Jul 02:55:20 03:03:28 41° 291° (WNW) 03:11:38 435.465 / 435.565
SWISSCUBE 02 Jul 02:57:16 03:02:04 77° 74° (ENE) 03:06:53 437.505
KKS-1 02 Jul 03:11:13 03:13:31 14° 58° (ENE) 03:15:48 437.445
NANOSAT C BR1 02 Jul 03:13:23 03:14:08 10° 303° (WNW) 03:14:53 145.865
Gurwin Techsat 1B 02 Jul 03:16:43 03:21:35 34° 96° (E) 03:26:24 435.225
BEESAT 02 Jul 03:22:09 03:26:56 70° 257° (WSW) 03:31:44 436.000
AIST 1 02 Jul 03:22:28 03:24:13 12° 64° (ENE) 03:25:58
ITUPSAT 1 02 Jul 03:25:49 03:30:35 66° 257° (WSW) 03:35:25 437.325
JAS-2 02 Jul 03:28:24 03:33:36 39° 295° (WNW) 03:38:26 435.910
MOZHAYETS 4 02 Jul 03:28:29 03:31:44 19° 61° (ENE) 03:34:59
STARS 02 Jul 03:33:22 03:35:05 12° 57° (ENE) 03:36:50 437.465
BEESAT 3 02 Jul 03:40:31 03:44:19 49° 312° (NW) 03:48:11 437.485
GONETS M04 02 Jul 03:47:23 03:51:01 13° 48° (NE) 03:54:38
PCSat 02 Jul 04:05:35 04:10:28 33° 316° (NW) 04:15:22 145.827
AIST 2 02 Jul 04:05:41 04:07:13 12° 109° (ESE) 04:08:46 435.215
Oscar 19 02 Jul 04:08:17 04:13:06 42° 293° (WNW) 04:17:53 437.125/150
O/OREOS (USA 219) 02 Jul 04:11:52 04:16:01 36° 303° (WNW) 04:20:10 437.305
Cosmos 2504 02 Jul 04:15:16 04:20:32 18° 287° (WNW) 04:25:41 435.465 / 435.565
AO-7 02 Jul 04:24:55 04:31:47 27° 93° (E) 04:38:35 29.400- 29.500
BEESAT 2 02 Jul 04:26:32 04:30:09 33° 316° (NW) 04:33:48 435.950
AO-85 02 Jul 04:31:23 04:34:47 19° 30° (NNE) 04:37:59 145.980
SWISSCUBE 02 Jul 04:37:59 04:40:26 14° 271° (W) 04:42:55 437.505
ITAMSAT 1 02 Jul 04:39:00 04:44:15 66° 102° (ESE) 04:49:26 435.822/435.867
KKS-1 02 Jul 04:45:05 04:49:30 77° 257° (WSW) 04:53:57 437.445
Cosmos 2499 02 Jul 04:52:02 04:58:24 21° 56° (ENE) 05:04:30 435.465 / 435.565
Gurwin Techsat 1B 02 Jul 04:56:41 05:01:32 37° 294° (WNW) 05:06:22 435.225
AIST 1 02 Jul 04:58:08 05:02:23 73° 263° (W) 05:06:37
MOZHAYETS 4 02 Jul 05:03:55 05:08:28 58° 259° (W) 05:13:05
CUBESAT XI-V 02 Jul 05:06:14 05:09:54 23° 64° (ENE) 05:13:34 437.345
STARS 02 Jul 05:06:26 05:10:48 88° 259° (W) 05:15:12 437.465
BEESAT 3 02 Jul 05:21:40 05:22:57 11° 333° (NNW) 05:24:14 437.485
AIST 2 02 Jul 05:40:57 05:45:04 83° 307° (NW) 05:49:14 435.215
GONETS M04 02 Jul 05:41:48 05:50:20 54° 74° (ENE) 05:58:51
PCSat 02 Jul 05:53:59 05:55:39 11° 340° (NNW) 05:57:18 145.827
HORYU 2 02 Jul 05:58:48 06:02:38 26° 95° (E) 06:06:25 437.375
AO-85 02 Jul 06:11:22 06:16:00 87° 47° (NE) 06:20:14 145.980
AO-7 02 Jul 06:16:56 06:25:20 76° 292° (WNW) 06:33:39 29.400- 29.500
ITAMSAT 1 02 Jul 06:19:27 06:23:14 20° 301° (WNW) 06:26:59 435.822/435.867
NOAA 15 02 Jul 06:25:56 06:27:55 12° 87° (E) 06:29:53 137.62
STRAND 1 02 Jul 06:26:50 06:29:39 15° 56° (NE) 06:32:28 437.568
CUBESAT XI-V 02 Jul 06:42:30 06:47:01 46° 262° (W) 06:51:33 437.345
Cosmos 2499 02 Jul 06:44:14 06:53:05 83° 79° (E) 07:01:20 435.465 / 435.565
CUSAT 1 02 Jul 07:07:27 07:13:29 29° 91° (E) 07:18:36 437.405
PHONESAT 2.4 02 Jul 07:08:59 07:11:15 19° 166° (SSE) 07:13:31 2401.200-2431.200
Cubesat XI-IV 02 Jul 07:15:48 07:20:16 26° 93° (E) 07:24:42 437.490
AIST 2 02 Jul 07:21:34 07:24:13 16° 328° (NNW) 07:26:52 435.215
HORYU 2 02 Jul 07:35:08 07:39:15 36° 292° (WNW) 07:43:21 437.375
GONETS M04 02 Jul 07:39:05 07:46:53 39° 275° (W) 07:54:42
NOAA 18 02 Jul 07:42:42 07:48:03 45° 99° (E) 07:53:21 137.9125
CUTE-I 02 Jul 07:48:22 07:53:37 48° 100° (E) 07:58:47 437.470
AO-85 02 Jul 07:54:06 07:55:37 12° 254° (WSW) 07:57:05 145.980
BRITE-PL 02 Jul 07:55:34 07:59:44 81° 105° (ESE) 08:03:58 437.365/2234.400
PRISM 02 Jul 07:58:24 08:00:26 13° 59° (ENE) 08:02:28 437.425
STRAND 1 02 Jul 08:02:55 08:08:05 88° 79° (E) 08:13:17 437.568
NOAA 15 02 Jul 08:03:12 08:08:30 85° 105° (ESE) 08:13:44 137.62
DANDE 02 Jul 08:05:46 08:13:28 44° 92° (E) 08:20:16 436.750
GOMX 1 02 Jul 08:08:07 08:12:15 50° 100° (E) 08:16:34 467.674
AO-7 02 Jul 08:10:53 08:16:50 22° 315° (NW) 08:22:46 29.400- 29.500
LilacSat-2 02 Jul 08:14:20 08:18:15 85° 284° (WNW) 08:22:09 437.200
Cosmos 2499 02 Jul 08:38:40 08:45:07 24° 283° (WNW) 08:51:18 435.465 / 435.565
PHONESAT 2.4 02 Jul 08:44:46 08:47:21 25° 183° (S) 08:49:56 2401.200-2431.200
DOVE 4 02 Jul 08:47:30 08:51:50 61° 101° (E) 08:56:26 437.250
CUSAT 1 02 Jul 08:48:09 08:55:22 58° 284° (WNW) 09:01:12 437.405
ISS 02 Jul 08:49:40 08:52:49 46° 146° (SE) 08:55:59 145.825
Cubesat XI-IV 02 Jul 08:55:23 09:00:35 49° 291° (WNW) 09:05:45 437.490
CANX-2 02 Jul 08:57:44 09:01:12 23° 93° (E) 09:04:38 2200.000
HO-68 02 Jul 09:05:55 09:12:23 34° 95° (E) 09:18:47 435.675
CINEMA 3 02 Jul 09:13:03 09:17:20 36° 97° (E) 09:21:45 145.822/145.860
SEEDS 02 Jul 09:13:22 09:16:40 22° 93° (E) 09:19:56 437.485
CUTE 1.7 + AOD 2 02 Jul 09:16:38 09:20:30 32° 96° (E) 09:24:18 437.475
UWE-3 02 Jul 09:23:35 09:24:46 11° 86° (E) 09:25:58 435.000/436.395/437.385
NOAA 18 02 Jul 09:23:43 09:28:31 31° 298° (WNW) 09:33:19 137.9125
PCSat 02 Jul 09:23:48 09:27:37 19° 33° (NNE) 09:31:26 145.827
BEESAT 2 02 Jul 09:27:31 09:28:55 11° 27° (NNE) 09:30:18 435.950
CUTE-I 02 Jul 09:28:55 09:33:24 28° 298° (WNW) 09:37:53 437.470
PRISM 02 Jul 09:31:04 09:35:13 71° 257° (WSW) 09:39:21 437.425
BRITE-PL 02 Jul 09:36:19 09:37:40 11° 301° (WNW) 09:39:00 437.365/2234.400
AAUSAT CUBESAT 2 02 Jul 09:40:28 09:43:51 23° 94° (E) 09:47:12 437.432
NOAA 15 02 Jul 09:44:25 09:47:36 16° 304° (NW) 09:50:46 137.62
STRAND 1 02 Jul 09:45:38 09:47:58 13° 273° (W) 09:50:20 437.568
GOMX 1 02 Jul 09:47:10 09:50:04 18° 296° (WNW) 09:53:02 467.674
DANDE 02 Jul 09:48:21 09:56:18 48° 288° (WNW) 10:03:11 436.750
TIGRISAT 02 Jul 09:54:50 09:57:35 17° 60° (ENE) 10:00:22 435.000
UNISAT 6 02 Jul 10:00:56 10:04:04 20° 62° (ENE) 10:07:18 437.425
BEESAT 3 02 Jul 10:17:38 10:21:14 32° 44° (NE) 10:24:50 437.485
COMPASS 1 02 Jul 10:18:14 10:22:27 74° 102° (ESE) 10:26:36 437.405
CUBEBUG 2 02 Jul 10:18:45 10:23:19 53° 100° (E) 10:27:57 437.445
PHONESAT 2.4 02 Jul 10:21:36 10:23:24 15° 199° (SSW) 10:25:11 2401.200-2431.200
ISS 02 Jul 10:26:09 10:29:19 44° 346° (NNW) 10:32:28 145.825
DOVE 4 02 Jul 10:26:24 10:29:11 17° 298° (WNW) 10:32:02 437.250
ZACube-1 02 Jul 10:26:56 10:31:00 31° 95° (E) 10:35:05 437.345
AUBIESAT-1 02 Jul 10:27:01 10:30:13 22° 100° (E) 10:33:35 437.475
Oscar 11 02 Jul 10:28:42 10:32:39 32° 96° (E) 10:36:32 145.826/435.025
CANX-2 02 Jul 10:33:12 10:37:09 36° 291° (WNW) 10:41:05 2200.000
RS-15 02 Jul 10:35:02 10:42:47 21° 97° (E) 10:50:45 29.354- 29.394
CUSAT 1 02 Jul 10:36:17 10:38:18 11° 301° (WNW) 10:40:11 437.405
ANTELSAT 02 Jul 10:39:20 10:43:27 44° 70° (ENE) 10:47:43 437.575/2403.000
FUNcube-1 02 Jul 10:41:58 10:46:18 41° 98° (E) 10:50:37 145.935
SEEDS 02 Jul 10:48:34 10:52:31 39° 291° (WNW) 10:56:26 437.485
CINEMA 3 02 Jul 10:50:26 10:54:22 29° 293° (WNW) 10:58:26 145.822/145.860
DELFI C3 02 Jul 10:52:07 10:55:27 25° 94° (E) 10:58:45 145.870
CUTE 1.7 + AOD 2 02 Jul 10:52:37 10:56:15 27° 294° (WNW) 10:59:51 437.475
HO-68 02 Jul 10:53:23 11:00:22 55° 295° (WNW) 11:07:19 435.675
NANOSAT C BR1 02 Jul 10:56:40 10:58:30 13° 59° (ENE) 11:00:19 145.865
UWE-3 02 Jul 10:57:13 11:01:52 89° 113° (ESE) 11:06:33 435.000/436.395/437.385
O/OREOS (USA 219) 02 Jul 11:01:15 11:03:37 14° 45° (NE) 11:05:59 437.305
QB50P1 02 Jul 11:01:33 11:03:55 15° 60° (ENE) 11:06:17 145.935-145.965
BEESAT 2 02 Jul 11:03:47 11:07:42 49° 48° (NE) 11:11:35 435.950
HUMSAT D 02 Jul 11:03:54 11:06:54 18° 91° (E) 11:09:52 437.325/437.525
Cosmos 2491 02 Jul 11:04:42 11:12:09 30° 64° (ENE) 11:19:33 435.465 / 435.565
POPSAT HIP 1 02 Jul 11:04:59 11:07:31 16° 61° (ENE) 11:10:02 437.405
PCSat 02 Jul 11:06:30 11:11:58 75° 55° (NE) 11:17:23 145.827
M-CUBED/EXP-1 PRIME 02 Jul 11:09:30 11:13:28 74° 107° (ESE) 11:17:45 437.505
DUCHIFAT 1 02 Jul 11:14:02 11:16:47 17° 62° (ENE) 11:19:35 145.980
AAUSAT CUBESAT 2 02 Jul 11:15:37 11:19:25 34° 291° (WNW) 11:23:10 437.432
QB50P2 02 Jul 11:17:35 11:20:49 22° 64° (ENE) 11:24:04 145.880/145.840
POLYITAN 1 02 Jul 11:20:11 11:23:27 22° 64° (ENE) 11:26:44 437.675
